Location: Recife
(8.0585°S, 34.8848°W)
Time: 21:08:45
(UTC-03:00)

Explorer 11/Cluster Stage 4 - Pass Details

Date: 23 April 2026
Orbit: 463 x 1174 km, 28.8° (Epoch: 16 May)

Event Time Altitude Azimuth Distance (km) Brightness Sun altitude
Rises 14:31:45 0° 319° (NW) 4,009 11.0 37.6°
Reaches altitude 10° 14:34:51 10° 327° (NNW) 3,071 10.5 36.8°
Maximum altitude 14:41:48 36° 30° (NNE) 1,747 8.6 35.2°
Drops below altitude 10° 14:48:26 10° 94° (E) 2,925 9.1 33.7°
Sets 14:51:18 0° 102° (ESE) 3,798 9.6 33.1°
